This is the latest recevied weather packets stored in our database for station/object N7WGJ. If no packets are shown the sender has not sent any weather packets the latest 1 day(s).
| Time | Temp. | Humidity | Pressure | Rain* | Wind** | Luminosity | Snow |
|---|---|---|---|---|---|---|---|
| 1778103100 | 13.89° C | 80% | 1021.4 hPa | 0 mm | - | - | - |
| 1778101902 | 14.44° C | 79% | 1021.5 hPa | 0 mm | - | - | - |
| 1778101300 | 14.44° C | 80% | 1021.4 hPa | 0 mm | - | - | - |
| 1778100097 | 13.89° C | 81% | 1021.3 hPa | 0 mm | - | - | - |
| 1778098297 | 13.89° C | 81% | 1021.2 hPa | 0 mm | - | - | - |
| 1778094700 | 13.33° C | 81% | 1020.9 hPa | 0 mm | - | - | - |
| 1778093494 | 13.33° C | 83% | 1020.9 hPa | 0 mm | - | - | - |
| 1778092897 | 12.78° C | 85% | 1021 hPa | 0 mm | - | - | - |
| 1778091697 | 12.78° C | 86% | 1021 hPa | 0 mm | - | - | - |
| 1778089892 | 12.22° C | 88% | 1020.8 hPa | 0 mm | - | - | - |
| 1778086907 | 12.22° C | 89% | 1020.8 hPa | 0 mm | - | - | - |
| 1778086301 | 12.22° C | 88% | 1020.9 hPa | 0 mm | - | - | - |
| 1778084497 | 11.67° C | 92% | 1020.3 hPa | 0 mm | - | - | - |
| 1778083305 | 11.11° C | 94% | 1020.3 hPa | 0 mm | - | - | - |
| 1778082695 | 11.11° C | 95% | 1020.3 hPa | 0 mm | - | - | - |
| 1778080900 | 11.11° C | 96% | 1020.2 hPa | 0 mm | - | - | - |
| 1778080304 | 11.11° C | 96% | 1020.2 hPa | 0 mm | - | - | - |
| 1778079707 | 11.11° C | 95% | 1020.3 hPa | 0 mm | - | - | - |
| 1778078494 | 11.11° C | 96% | 1020.3 hPa | 0 mm | - | - | - |
| 1778077896 | 11.11° C | 95% | 1020 hPa | 0 mm | - | - | - |
| 1778076696 | 11.11° C | 95% | 1020.1 hPa | 0 mm | - | - | - |
| 1778074891 | 11.11° C | 95% | 1019.8 hPa | 0 mm | - | - | - |
| 1778072515 | 11.11° C | 94% | 1019.5 hPa | 0 mm | - | - | - |
| 1778068289 | 11.11° C | 93% | 1019 hPa | 0 mm | - | - | - |
| 1778062294 | 11.67° C | 92% | 1018.5 hPa | 0 mm | - | - | - |
* Rain latest hour (hover to see other rain measurements)
** Current wind speed in m/s (hover to see current wind gust speed)